Simultaneous Nadir Overpasses (SNOs) Predictions

Prediction of SNOs between GOES-15 and NOAA-20 Satellite Orbit:

Table of predicted SNOs for the next 14.0 days since TLE Epoch: 1/23/2022
Index Date Time (GOES-15) GOES-15 Lat,Lon NOAA-20 Lat,Lon Distance(km) Time Diff (sec)
1 01/23/2022 09:51:58 -0.04,-128.35 -0.31,-127.17 134.80 80
2 01/24/2022 22:13:56 0.05,-128.36 -0.90,-132.48 469.69 80
3 01/25/2022 21:57:54 0.04,-128.36 0.16,-127.96 45.99 80
4 01/28/2022 10:01:00 -0.03,-128.32 0.04,-128.70 42.47 80
5 01/29/2022 09:39:36 -0.02,-128.31 -0.96,-124.17 472.32 80
6 01/30/2022 22:01:34 0.02,-128.30 -0.25,-129.48 133.82 80
7 01/31/2022 21:45:31 0.01,-128.29 0.76,-124.95 380.86 80
8 02/02/2022 10:07:20 -0.02,-128.26 0.44,-130.22 223.61 80
9 02/03/2022 09:45:58 -0.02,-128.25 -0.62,-125.70 290.90 80
10 02/04/2022 22:07:56 0.02,-128.23 -0.58,-131.01 315.47 80
11 02/05/2022 21:51:53 0.02,-128.22 0.43,-126.48 199.13 80
